QPF
0.00 0.02 0.01 0.01 0.00 0.00 0.00 0.02 0.00 0.00 0.00 0.00 0.00 0.00 0.00 0.00 0.00 0.00 0.00 0.00 0.00 0.00 0.00 0.00 0.00 0.00 0.00 0.00 0.00 0.00 0.00 0.00 0.00 0.00 0.00 0.00 0.00 0.00 0.00 0.00 0.00 0.00 0.00
0.00 0.00 0.00 0.00 0.00 0.00 0.02 0.03 0.00 0.00 0.00 0.00 0.00 0.00 0.00 0.00 0.00 0.00 0.00 0.00 0.00 0.00 0.00 0.00 0.00 0.00 0.00 0.00 0.00 0.00 0.00 0.00 0.00 0.00 0.00 0.00 0.00 0.00 0.00 0.00 0.00 0.00 0.00
0.00 0.00 0.00 0.00 0.00 0.00 0.00 0.00 0.00 0.00 0.00 0.00 0.00 0.00 0.00 0.00 0.00 0.00 0.00 0.00 0.00 0.00 0.00 0.00 0.00 0.00 0.00 0.00 0.00 0.00 0.00 0.00 0.00 0.00 0.00 0.00 0.00 0.00 0.00 0.00 0.00 0.00 0.00
0.01 0.00 0.00 0.00 0.00 0.00 0.01 0.00 0.00 0.00 0.00 0.00 0.00 0.00 0.00 0.00 0.00 0.00 0.00 0.00 0.00 0.00 0.00 0.00 0.00 0.00 0.00 0.00 0.00 0.00 0.00 0.00 0.00 0.00 0.00 0.00 0.00 0.00 0.00 0.00 0.00 0.00 0.00
0.00 0.01 0.00 0.00 0.00 0.00 0.01 0.00 0.00 0.00 0.00 0.00 0.00 0.00 0.00 0.00 0.00 0.00 0.00 0.00 0.00 0.00 0.00 0.00 0.00 0.00 0.00 0.00 0.00 0.00 0.00 0.00 0.00 0.00 0.00 0.00 0.00 0.00 0.00 0.01 0.00 0.00 0.00
0.04 0.01 0.00 0.01 0.01 0.01 0.00 0.01 0.00 0.00 0.00 0.00 0.00 0.00 0.00 0.00 0.00 0.00 0.00 0.00 0.00 0.00 0.00 0.00 0.00 0.00 0.00 0.00 0.00 0.00 0.00 0.00 0.00 0.00 0.00 0.00 0.00 0.00 0.00 0.02 0.01 0.00 0.00
0.06 0.00 0.00 0.00 0.01 0.01 0.00 0.02 0.00 0.00 0.00 0.00 0.00 0.00 0.00 0.00 0.00 0.00 0.00 0.00 0.00 0.00 0.00 0.00 0.00 0.00 0.00 0.00 0.00 0.00 0.00 0.00 0.00 0.00 0.00 0.00 0.00 0.00 0.00 0.00 0.00 0.00 0.00
0.05 0.01 0.00 0.00 0.00 0.00 0.00 0.00 0.00 0.00 0.00 0.00 0.00 0.00 0.00 0.00 0.00 0.00 0.00 0.00 0.00 0.00 0.00 0.00 0.00 0.00 0.00 0.00 0.00 0.00 0.00 0.00 0.00 0.00 0.00 0.00 0.00 0.00 0.00 0.00 0.00 0.00 0.00
0.01 0.02 0.00 0.01 0.01 0.00 0.00 0.00 0.01 0.00 0.00 0.00 0.00 0.00 0.00 0.00 0.00 0.00 0.00 0.00 0.00 0.00 0.00 0.00 0.00 0.00 0.00 0.00 0.00 0.00 0.00 0.00 0.00 0.00 0.00 0.00 0.00 0.00 0.00 0.00 0.00 0.00 0.00
0.01 0.01 0.00 0.00 0.00 0.00 0.01 0.00 0.00 0.00 0.00 0.00 0.00 0.00 0.00 0.00 0.00 0.00 0.00 0.00 0.00 0.00 0.00 0.00 0.00 0.00 0.00 0.00 0.00 0.00 0.00 0.00 0.00 0.00 0.00 0.00 0.00 0.00 0.00 0.00 0.00 0.00 0.00
0.01 0.03 0.00 0.00 0.00 0.00 0.00 0.00 0.01 0.00 0.00 0.00 0.00 0.00 0.00 0.00 0.00 0.00 0.00 0.00 0.00 0.00 0.00 0.00 0.00 0.00 0.00 0.00 0.00 0.00 0.00 0.00 0.00 0.00 0.00 0.00 0.00 0.00 0.00 0.00 0.00 0.00 0.00
0.00 0.02 0.00 0.00 0.01 0.00 0.00 0.00 0.00 0.00 0.00 0.00 0.00 0.00 0.00 0.00 0.00 0.00 0.00 0.00 0.00 0.00 0.00 0.00 0.00 0.00 0.00 0.00 0.00 0.00 0.00 0.00 0.00 0.00 0.00 0.00 0.00 0.00 0.00 0.00 0.00 0.00 0.00
0.00 0.00 0.00 0.00 0.00 0.00 0.00 0.00 0.00 0.00 0.00 0.00 0.00 0.00 0.00 0.00 0.00 0.00 0.00 0.00 0.00 0.00 0.00 0.00 0.00 0.00 0.00 0.00 0.00 0.00 0.00 0.00 0.00 0.00 0.00 0.00 0.00 0.00 0.00 0.00 0.00 0.00 0.00
0.00 0.00 0.00 0.00 0.00 0.00 0.00 0.00 0.00 0.00 0.00 0.00 0.00 0.00 0.00 0.00 0.00 0.00 0.00 0.00 0.00 0.00 0.00 0.00 0.00 0.00 0.00 0.00 0.00 0.00 0.00 0.00 0.00 0.00 0.00 0.00 0.00 0.00 0.00 0.00 0.00 0.00 0.00
0.01 0.00 0.00 0.00 0.00 0.00 0.00 0.00 0.00 0.00 0.00 0.00 0.00 0.00 0.00 0.00 0.00 0.00 0.00 0.00 0.00 0.00 0.00 0.00 0.00 0.00 0.00 0.00 0.00 0.00 0.00 0.00 0.00 0.00 0.00 0.00 0.00 0.00 0.00 0.00 0.00 0.00 0.00
0.04 0.01 0.01 0.01 0.02 0.01 0.00 0.00 0.00 0.00 0.00 0.00 0.00 0.00 0.00 0.00 0.00 0.00 0.00 0.00 0.00 0.00 0.00 0.00 0.00 0.00 0.00 0.00 0.00 0.00 0.00 0.00 0.00 0.00 0.00 0.00 0.00 0.00 0.00 0.00 0.00 0.00 0.00
0.03 0.01 0.01 0.00 0.00 0.00 0.00 0.00 0.00 0.00 0.00 0.00 0.00 0.00 0.00 0.00 0.00 0.00 0.00 0.00 0.00 0.00 0.00 0.00 0.00 0.00 0.00 0.00 0.00 0.00 0.00 0.00 0.00 0.00 0.00 0.00 0.00 0.00 0.00 0.00 0.00 0.00 0.00
0.02 0.08 0.02 0.00 0.00 0.00 0.00 0.00 0.00 0.00 0.00 0.00 0.00 0.00 0.00 0.00 0.00 0.00 0.00 0.00 0.00 0.00 0.00 0.00 0.00 0.00 0.00 0.00 0.00 0.00 0.00 0.00 0.00 0.00 0.00 0.00 0.00 0.00 0.00 0.00 0.00 0.00 0.00
0.06 0.07 0.04 0.03 0.00 0.00 0.01 0.00 0.01 0.00 0.00 0.00 0.00 0.01 0.00 0.00 0.00 0.00 0.00 0.00 0.00 0.00 0.00 0.00 0.00 0.00 0.00 0.00 0.00 0.00 0.00 0.00 0.00 0.00 0.00 0.00 0.00 0.00 0.00 0.00 0.00 0.00 0.00
0.01 0.02 0.03 0.04 0.01 0.00 0.00 0.00 0.02 0.05 0.03 0.00 0.00 0.02 0.02 0.00 0.00 0.00 0.00 0.00 0.00 0.00 0.00 0.00 0.00 0.00 0.00 0.00 0.00 0.00 0.00 0.00 0.00 0.00 0.00 0.00 0.00 0.00 0.00 0.00 0.00 0.00 0.00
0.00 0.01 0.01 0.01 0.01 0.00 0.00 0.00 0.01 0.05 0.03 0.00 0.00 0.00 0.00 0.00 0.00 0.00 0.00 0.00 0.00 0.00 0.00 0.00 0.00 0.00 0.00 0.00 0.00 0.00 0.00 0.00 0.00 0.00 0.00 0.00 0.00 0.00 0.00 0.00 0.00 0.00 0.00
0.12 0.10 0.03 0.04 0.05 0.03 0.04 0.01 0.00 0.00 0.01 0.00 0.00 0.00 0.00 0.00 0.00 0.00 0.00 0.00 0.01 0.00 0.00 0.00 0.00 0.00 0.00 0.00 0.00 0.00 0.00 0.00 0.00 0.00 0.00 0.00 0.00 0.00 0.00 0.00 0.00 0.00 0.00
0.03 0.07 0.13 0.14 0.09 0.06 0.09 0.08 0.04 0.00 0.00 0.00 0.01 0.00 0.00 0.00 0.00 0.00 0.00 0.00 0.00 0.01 0.01 0.00 0.00 0.00 0.00 0.00 0.00 0.00 0.00 0.00 0.00 0.00 0.00 0.00 0.00 0.00 0.00 0.00 0.00 0.00 0.00
0.00 0.03 0.07 0.10 0.18 0.19 0.19 0.12 0.14 0.04 0.00 0.00 0.00 0.00 0.00 0.00 0.00 0.00 0.00 0.00 0.00 0.00 0.00 0.00 0.00 0.00 0.00 0.00 0.00 0.00 0.00 0.00 0.00 0.00 0.00 0.00 0.00 0.00 0.00 0.00 0.00 0.00 0.00
0.00 0.01 0.04 0.05 0.05 0.16 0.21 0.22 0.13 0.09 0.04 0.02 0.02 0.00 0.00 0.00 0.01 0.04 0.02 0.00 0.00 0.00 0.00 0.00 0.00 0.00 0.00 0.00 0.00 0.00 0.00 0.00 0.00 0.00 0.00 0.00 0.00 0.00 0.00 0.00 0.00 0.00 0.00
0.00 0.01 0.03 0.02 0.02 0.07 0.09 0.10 0.12 0.11 0.07 0.10 0.03 0.00 0.02 0.01 0.01 0.01 0.00 0.00 0.00 0.00 0.00 0.00 0.00 0.00 0.00 0.00 0.00 0.00 0.00 0.00 0.00 0.00 0.00 0.00 0.00 0.00 0.00 0.00 0.00 0.00 0.00
MSLP
1021.36 1021.27 1021.35 1021.36 1021.34 1021.41 1021.54 1021.65 1021.68 1021.47 1021.14 1020.91 1020.91 1021.10 1021.34 1021.62 1021.80 1021.87 1021.86 1021.66 1021.65 1021.62 1021.62 1021.69 1021.76 1021.71 1021.67 1021.62 1021.53 1021.43 1021.32 1021.27 1021.22 1021.14 1020.99 1020.85 1020.74 1020.73 1020.76 1020.81 1020.80 1020.78 1020.82
1021.44 1021.55 1021.67 1021.72 1021.63 1021.60 1021.53 1021.60 1021.56 1021.40 1021.24 1021.20 1021.23 1021.28 1021.53 1021.73 1021.89 1021.92 1021.96 1021.88 1021.74 1021.74 1021.72 1021.71 1021.65 1021.66 1021.66 1021.55 1021.45 1021.38 1021.31 1021.24 1021.18 1021.06 1020.89 1020.70 1020.63 1020.60 1020.60 1020.65 1020.63 1020.60 1020.64
1021.45 1021.54 1021.71 1021.81 1021.83 1021.77 1021.59 1021.79 1021.79 1021.67 1021.62 1021.50 1021.52 1021.70 1021.82 1021.82 1021.98 1022.05 1022.02 1021.97 1021.92 1021.75 1021.74 1021.68 1021.64 1021.63 1021.59 1021.52 1021.38 1021.28 1021.22 1021.16 1021.06 1020.96 1020.76 1020.55 1020.43 1020.35 1020.31 1020.39 1020.38 1020.42 1020.49
1021.36 1021.67 1021.68 1021.71 1021.75 1021.83 1021.87 1021.94 1022.03 1022.07 1022.06 1022.05 1021.99 1021.94 1021.90 1021.86 1021.93 1022.00 1021.97 1021.96 1021.97 1021.89 1021.82 1021.61 1021.60 1021.56 1021.50 1021.38 1021.27 1021.25 1021.17 1021.05 1020.97 1020.81 1020.59 1020.37 1020.14 1020.00 1019.98 1020.06 1020.14 1020.21 1020.31
1021.51 1021.66 1021.60 1021.60 1021.77 1021.98 1022.09 1022.05 1022.01 1021.94 1022.12 1022.05 1021.98 1022.03 1021.89 1021.86 1021.88 1021.82 1021.87 1021.83 1021.86 1021.84 1021.84 1021.68 1021.53 1021.47 1021.38 1021.24 1021.15 1021.16 1021.10 1020.90 1020.80 1020.64 1020.41 1020.15 1019.88 1019.69 1019.66 1019.61 1019.74 1019.84 1019.92
1021.56 1021.79 1021.70 1021.71 1021.74 1022.05 1022.22 1022.40 1022.35 1022.27 1022.31 1022.30 1022.14 1021.95 1021.93 1021.74 1021.63 1021.74 1021.64 1021.55 1021.60 1021.65 1021.66 1021.65 1021.58 1021.46 1021.28 1021.08 1020.99 1020.95 1020.86 1020.68 1020.63 1020.49 1020.23 1019.94 1019.69 1019.45 1019.38 1019.16 1019.25 1019.36 1019.44
1021.67 1021.74 1021.83 1021.94 1021.97 1022.31 1022.42 1022.35 1022.40 1022.47 1022.49 1022.48 1022.50 1022.09 1022.07 1021.77 1021.69 1021.61 1021.44 1021.50 1021.44 1021.38 1021.49 1021.47 1021.49 1021.42 1021.25 1021.04 1020.88 1020.80 1020.62 1020.51 1020.51 1020.31 1020.08 1019.73 1019.64 1019.38 1019.14 1018.94 1018.92 1018.89 1019.07
1021.53 1021.73 1021.87 1022.03 1022.26 1022.28 1022.25 1022.42 1022.56 1022.77 1022.79 1022.63 1022.96 1023.15 1023.03 1022.32 1021.82 1021.68 1021.47 1021.48 1021.33 1021.38 1021.30 1021.21 1021.28 1021.21 1021.12 1021.02 1020.86 1020.69 1020.48 1020.33 1020.34 1020.18 1019.99 1019.72 1019.56 1019.25 1019.06 1018.84 1018.58 1018.77 1018.67
1021.36 1021.61 1021.80 1021.97 1022.09 1022.17 1022.41 1022.53 1022.75 1022.86 1022.92 1022.70 1022.75 1023.01 1023.29 1023.12 1022.66 1021.94 1021.68 1021.51 1021.53 1021.47 1021.22 1021.11 1021.01 1020.95 1020.90 1020.84 1020.64 1020.55 1020.27 1020.10 1020.12 1020.08 1019.93 1019.74 1019.54 1019.19 1019.05 1018.75 1018.59 1018.51 1018.48
1021.32 1021.55 1021.67 1021.99 1022.21 1022.51 1022.56 1022.49 1022.43 1022.83 1022.92 1023.02 1022.90 1022.73 1022.86 1022.91 1022.98 1022.87 1022.00 1021.68 1021.53 1021.38 1021.15 1020.95 1020.94 1020.81 1020.75 1020.69 1020.45 1020.34 1020.17 1019.96 1019.93 1019.96 1019.87 1019.69 1019.53 1019.19 1019.05 1018.81 1018.58 1018.46 1018.43
1021.31 1021.35 1021.52 1021.91 1022.17 1022.41 1022.49 1022.50 1022.64 1022.75 1022.97 1023.11 1023.05 1022.99 1022.91 1022.87 1022.87 1023.06 1022.92 1022.26 1021.78 1021.29 1020.94 1020.87 1020.87 1020.80 1020.52 1020.53 1020.44 1020.21 1020.04 1019.96 1019.84 1019.85 1019.74 1019.60 1019.44 1019.26 1019.03 1018.79 1018.60 1018.49 1018.39
1021.62 1021.47 1021.46 1021.64 1021.91 1022.12 1022.44 1022.52 1022.56 1022.79 1022.94 1023.07 1023.15 1023.06 1023.05 1023.20 1023.14 1023.07 1023.15 1022.80 1022.55 1021.62 1020.96 1020.60 1020.62 1020.56 1020.36 1020.42 1020.27 1019.95 1019.85 1019.87 1019.81 1019.77 1019.65 1019.43 1019.31 1019.24 1019.13 1018.85 1018.70 1018.58 1018.46
1021.69 1021.74 1021.63 1021.88 1021.94 1022.02 1022.12 1022.37 1022.48 1022.73 1022.91 1023.08 1023.21 1023.25 1023.17 1023.14 1023.01 1022.98 1023.06 1023.09 1022.96 1022.05 1021.33 1020.70 1020.42 1020.35 1020.22 1020.11 1020.14 1019.94 1019.80 1019.70 1019.63 1019.48 1019.40 1019.21 1019.16 1019.17 1019.12 1018.93 1018.87 1018.71 1018.61
1021.30 1021.26 1021.42 1021.64 1021.75 1021.83 1021.99 1022.20 1022.38 1022.58 1022.68 1022.97 1023.17 1023.18 1023.10 1023.02 1022.87 1022.83 1022.89 1022.94 1023.01 1022.63 1022.04 1021.49 1020.69 1020.44 1020.34 1020.10 1019.96 1019.98 1019.82 1019.68 1019.47 1019.22 1019.02 1018.97 1018.93 1018.98 1019.02 1018.91 1018.92 1018.81 1018.82
1020.92 1021.07 1021.10 1021.28 1021.55 1021.75 1021.86 1022.03 1022.37 1022.46 1022.58 1022.90 1023.04 1023.16 1023.05 1022.92 1022.75 1022.72 1022.68 1022.75 1022.88 1023.12 1022.72 1021.76 1021.38 1020.64 1020.43 1020.25 1020.10 1019.98 1019.72 1019.51 1019.27 1019.00 1018.75 1018.65 1018.60 1018.69 1018.80 1018.76 1018.77 1018.79 1018.85
1020.80 1021.00 1021.13 1021.20 1021.34 1021.63 1021.81 1022.01 1022.27 1022.33 1022.61 1022.78 1023.03 1023.08 1023.07 1022.92 1022.74 1022.56 1022.59 1022.58 1022.72 1022.91 1022.90 1022.22 1021.57 1021.06 1020.52 1020.35 1020.16 1019.99 1019.47 1019.22 1018.97 1018.80 1018.53 1018.39 1018.36 1018.38 1018.50 1018.54 1018.53 1018.59 1018.71
1020.41 1020.69 1020.87 1021.18 1021.37 1021.45 1021.54 1021.86 1022.10 1022.33 1022.58 1022.72 1022.91 1022.99 1022.96 1022.86 1022.73 1022.71 1022.53 1022.59 1022.67 1022.69 1022.82 1022.27 1021.80 1021.14 1020.84 1020.71 1020.11 1019.67 1019.38 1019.17 1018.92 1018.68 1018.44 1018.28 1018.19 1018.23 1018.26 1018.25 1018.34 1018.44 1018.50
1020.21 1020.59 1020.74 1021.05 1021.20 1021.35 1021.48 1021.65 1021.97 1022.18 1022.51 1022.64 1022.60 1022.67 1022.61 1022.64 1022.62 1022.62 1022.64 1022.58 1022.53 1022.52 1022.64 1022.66 1022.18 1021.63 1021.12 1020.51 1020.19 1019.96 1019.50 1019.16 1018.95 1018.71 1018.59 1018.43 1018.26 1018.17 1018.09 1017.99 1018.16 1018.13 1018.18
1020.32 1020.45 1020.87 1020.82 1020.99 1021.07 1021.37 1021.45 1021.65 1021.83 1022.12 1022.21 1022.27 1022.41 1022.24 1022.39 1022.46 1022.44 1022.45 1022.46 1022.45 1022.31 1022.37 1022.48 1022.21 1021.67 1021.18 1020.72 1020.40 1019.87 1019.55 1019.20 1018.95 1018.70 1018.57 1018.49 1018.31 1018.22 1018.03 1017.93 1017.88 1017.86 1017.91
1020.44 1020.68 1020.79 1020.87 1020.90 1021.00 1021.06 1021.27 1021.55 1021.61 1021.70 1021.78 1021.83 1021.84 1021.83 1021.94 1022.06 1022.09 1022.19 1022.15 1022.11 1022.22 1022.25 1022.26 1022.08 1021.76 1021.38 1020.72 1020.58 1020.46 1020.01 1019.56 1019.18 1018.50 1018.44 1018.42 1018.26 1018.01 1017.79 1017.67 1017.63 1017.57 1017.57
1020.41 1020.52 1020.57 1020.62 1020.57 1020.66 1020.77 1020.91 1021.15 1021.17 1021.27 1021.35 1021.32 1021.30 1021.18 1021.09 1021.13 1021.25 1021.52 1021.56 1021.80 1021.91 1022.04 1022.07 1021.93 1021.64 1021.22 1020.89 1020.69 1020.36 1020.30 1019.88 1019.28 1018.86 1018.68 1018.36 1018.12 1017.86 1017.48 1017.16 1016.98 1016.90 1016.78
1020.63 1020.50 1020.42 1020.38 1020.25 1020.37 1020.46 1020.55 1020.69 1020.80 1020.90 1021.02 1021.01 1020.79 1020.58 1020.53 1020.46 1020.63 1020.70 1020.71 1020.99 1021.30 1021.35 1021.42 1021.31 1021.32 1020.85 1020.67 1020.32 1020.31 1020.24 1020.15 1019.77 1018.68 1018.80 1018.21 1017.82 1017.47 1016.95 1016.62 1016.25 1016.12 1015.97
1021.08 1020.90 1020.88 1020.76 1020.47 1020.37 1020.32 1020.22 1020.23 1020.30 1020.38 1020.53 1020.51 1020.54 1020.40 1020.32 1020.25 1020.26 1020.33 1020.11 1020.14 1020.23 1020.55 1020.44 1020.51 1020.28 1019.95 1019.71 1019.80 1019.86 1019.80 1019.84 1019.67 1018.88 1018.83 1018.01 1017.52 1017.04 1016.25 1015.87 1015.60 1015.41 1015.46
1021.08 1021.17 1021.09 1021.08 1021.05 1020.72 1020.41 1020.56 1020.47 1020.36 1020.05 1020.02 1020.15 1020.03 1020.05 1019.89 1019.79 1019.82 1019.91 1019.97 1019.78 1019.50 1019.26 1019.38 1019.46 1019.07 1018.90 1018.69 1019.06 1019.13 1019.27 1019.24 1018.90 1018.59 1018.65 1018.40 1017.16 1016.87 1015.90 1015.41 1015.01 1014.84 1014.90
1021.54 1020.83 1021.16 1021.13 1021.18 1021.09 1020.62 1020.36 1020.12 1020.17 1020.05 1019.80 1019.74 1019.62 1019.55 1019.55 1019.42 1019.45 1019.71 1019.67 1019.18 1018.67 1018.19 1018.41 1018.31 1018.14 1018.13 1018.13 1018.35 1018.92 1019.10 1019.20 1018.60 1018.10 1018.01 1018.00 1017.08 1016.91 1016.12 1015.28 1014.65 1014.55 1014.58
1021.35 1021.55 1021.21 1020.88 1020.75 1021.01 1020.67 1020.23 1020.09 1020.18 1019.82 1019.70 1019.36 1019.13 1019.14 1019.30 1019.10 1019.05 1019.28 1019.21 1018.87 1018.26 1017.93 1017.68 1017.80 1017.77 1017.69 1017.55 1017.72 1018.03 1018.05 1018.27 1018.05 1017.59 1016.82 1017.41 1016.97 1016.95 1016.42 1015.20 1014.76 1014.36 1014.29
Thickness
5745 5746 5743 5744 5745 5745 5745 5745 5743 5744 5747 5751 5752 5749 5750 5748 5747 5748 5749 5751 5752 5753 5754 5754 5754 5755 5756 5756 5756 5757 5757 5757 5756 5754 5753 5752 5750 5748 5745 5742 5738 5735 5731
5747 5747 5744 5744 5747 5748 5749 5749 5749 5749 5751 5753 5753 5752 5752 5750 5750 5752 5753 5754 5755 5756 5757 5758 5758 5760 5760 5760 5761 5761 5761 5761 5760 5758 5757 5756 5754 5752 5750 5746 5743 5740 5735
5750 5750 5748 5746 5748 5749 5752 5751 5750 5751 5753 5754 5754 5753 5753 5753 5753 5753 5755 5757 5758 5760 5761 5761 5762 5764 5764 5765 5765 5766 5766 5765 5764 5762 5762 5761 5759 5757 5755 5751 5748 5744 5739
5754 5753 5752 5750 5750 5751 5753 5753 5752 5753 5754 5754 5756 5756 5758 5758 5758 5757 5758 5760 5761 5763 5764 5766 5767 5768 5769 5770 5770 5769 5769 5769 5768 5767 5766 5765 5764 5763 5760 5757 5753 5748 5743
5756 5755 5755 5754 5753 5752 5753 5755 5756 5757 5756 5758 5759 5759 5761 5761 5761 5761 5762 5764 5765 5766 5767 5769 5771 5772 5773 5774 5774 5772 5772 5773 5772 5771 5770 5770 5770 5769 5765 5763 5759 5754 5750
5757 5756 5757 5756 5756 5755 5754 5753 5755 5757 5758 5759 5761 5763 5764 5766 5767 5766 5767 5768 5770 5771 5772 5773 5775 5776 5777 5778 5778 5777 5777 5777 5775 5774 5774 5774 5774 5773 5771 5770 5766 5762 5757
5757 5757 5758 5756 5757 5755 5755 5756 5757 5757 5758 5760 5758 5762 5763 5768 5770 5771 5773 5773 5773 5775 5776 5777 5778 5779 5781 5782 5782 5782 5783 5781 5779 5778 5778 5779 5777 5776 5776 5775 5772 5769 5763
5760 5758 5758 5757 5756 5758 5760 5758 5758 5756 5756 5760 5754 5752 5749 5761 5771 5775 5776 5777 5778 5778 5780 5781 5782 5783 5784 5784 5785 5786 5787 5786 5783 5782 5781 5781 5780 5781 5780 5779 5778 5772 5770
5762 5761 5760 5760 5759 5760 5759 5759 5757 5757 5755 5760 5761 5756 5749 5748 5757 5774 5777 5780 5781 5782 5783 5784 5786 5786 5787 5787 5789 5788 5790 5790 5788 5785 5784 5783 5782 5784 5782 5782 5780 5778 5774
5764 5763 5763 5761 5759 5758 5759 5760 5759 5759 5759 5757 5762 5766 5766 5766 5757 5758 5776 5780 5783 5785 5787 5788 5788 5789 5789 5789 5791 5791 5792 5793 5791 5788 5787 5786 5784 5786 5784 5783 5783 5781 5777
5763 5763 5764 5763 5762 5761 5760 5760 5760 5760 5759 5759 5760 5763 5766 5768 5768 5763 5760 5772 5782 5787 5790 5791 5790 5791 5793 5791 5793 5794 5794 5793 5793 5791 5790 5789 5788 5787 5786 5785 5785 5783 5780
5761 5763 5764 5764 5764 5763 5761 5760 5761 5761 5760 5760 5760 5763 5763 5761 5764 5766 5764 5769 5773 5784 5792 5794 5795 5795 5796 5795 5795 5797 5797 5795 5795 5794 5793 5793 5792 5789 5787 5787 5785 5783 5782
5761 5761 5763 5761 5762 5763 5763 5763 5762 5762 5762 5760 5760 5761 5763 5764 5768 5769 5768 5768 5769 5781 5789 5795 5797 5797 5797 5799 5797 5798 5799 5799 5797 5798 5797 5796 5794 5791 5789 5788 5785 5784 5781
5764 5763 5763 5763 5762 5762 5762 5763 5763 5763 5763 5763 5762 5763 5764 5766 5769 5771 5771 5770 5767 5772 5780 5785 5795 5796 5796 5798 5799 5797 5799 5799 5799 5800 5800 5799 5797 5793 5790 5789 5786 5785 5782
5763 5764 5765 5765 5763 5762 5761 5761 5761 5762 5764 5763 5762 5763 5765 5767 5771 5772 5774 5774 5770 5762 5767 5782 5784 5793 5794 5795 5795 5796 5799 5799 5799 5800 5801 5801 5799 5796 5793 5791 5789 5786 5783
5762 5762 5762 5763 5763 5762 5761 5760 5760 5761 5762 5762 5762 5762 5764 5767 5770 5773 5774 5774 5773 5769 5764 5776 5783 5788 5791 5792 5793 5794 5798 5799 5800 5800 5801 5801 5800 5797 5794 5792 5790 5787 5784
5764 5765 5764 5761 5762 5763 5762 5762 5761 5760 5759 5761 5762 5761 5762 5766 5767 5770 5774 5773 5772 5772 5767 5774 5781 5786 5788 5790 5793 5795 5798 5798 5799 5800 5800 5800 5799 5797 5794 5792 5790 5787 5785
5763 5761 5761 5761 5761 5762 5762 5762 5760 5760 5757 5757 5761 5761 5762 5765 5765 5768 5769 5770 5772 5774 5770 5767 5775 5779 5784 5789 5792 5793 5795 5796 5797 5796 5796 5796 5797 5795 5794 5792 5789 5788 5786
5761 5760 5759 5760 5760 5761 5759 5761 5760 5760 5759 5759 5759 5759 5762 5763 5762 5764 5766 5767 5769 5772 5772 5769 5771 5779 5782 5787 5788 5791 5793 5795 5794 5794 5793 5793 5794 5794 5793 5792 5791 5790 5788
5757 5757 5757 5758 5758 5759 5759 5757 5757 5758 5759 5761 5762 5762 5762 5762 5762 5764 5764 5766 5767 5768 5769 5768 5770 5773 5777 5784 5785 5783 5784 5790 5790 5792 5792 5792 5792 5793 5794 5794 5794 5793 5792
5752 5753 5754 5755 5758 5759 5759 5757 5757 5759 5759 5760 5763 5764 5765 5766 5766 5767 5767 5768 5767 5767 5765 5765 5767 5770 5773 5775 5777 5782 5781 5784 5787 5788 5788 5789 5792 5793 5795 5797 5797 5797 5797
5741 5746 5748 5750 5753 5755 5758 5758 5758 5759 5760 5759 5759 5763 5767 5768 5767 5768 5769 5770 5771 5768 5767 5766 5767 5767 5771 5774 5779 5779 5778 5776 5772 5785 5785 5785 5791 5793 5797 5799 5800 5800 5800
5732 5736 5739 5742 5747 5750 5752 5755 5758 5759 5760 5759 5760 5760 5763 5767 5769 5769 5770 5771 5772 5773 5772 5773 5769 5770 5774 5778 5779 5776 5775 5774 5773 5781 5782 5783 5791 5793 5800 5801 5803 5803 5802
5723 5725 5729 5731 5735 5740 5744 5746 5748 5753 5757 5758 5758 5760 5761 5765 5768 5769 5768 5769 5771 5774 5775 5775 5775 5778 5779 5782 5780 5780 5778 5778 5781 5782 5781 5777 5791 5791 5799 5802 5804 5805 5803
5712 5720 5720 5723 5724 5727 5734 5738 5742 5747 5750 5753 5754 5759 5761 5762 5764 5765 5763 5764 5770 5775 5777 5778 5780 5782 5783 5785 5783 5779 5774 5772 5777 5780 5781 5778 5788 5789 5793 5798 5802 5802 5801
5705 5706 5711 5717 5720 5720 5724 5732 5734 5739 5745 5746 5750 5755 5758 5759 5763 5764 5763 5764 5767 5772 5772 5775 5779 5781 5783 5784 5784 5779 5779 5772 5774 5778 5785 5776 5781 5782 5782 5795 5797 5799 5797